Location: Newark
(47.5833°N, 8.1500°E)
Time: 15:31:07
(UTC+00:00)

Tiros 1 - Pass Details

Date: 29 October 2020
Orbit: 630 x 664 km, 48.4° (Epoch: 29 November)

Event Time Altitude Azimuth Distance (km) Brightness Sun altitude
Exits shadow 04:36:53 27° 263° (W) 1,205 7.9 -15.7°
Maximum altitude 04:39:22 86° 350° (N) 636 7.0 -15.3°
Drops below altitude 10° 04:44:00 10° 81° (E) 2,010 11.0 -14.5°
Sets 04:46:19 0° 82° (E) 2,920 12.2 -14.1°
